Weather History for Truth Or Consequences, NM

Change the Weather History Date:

Sunday, January 19, 2014

  Actual Average Record
Temperature  
Mean Temperature 46 °F -  
Max Temperature 61 °F - 73 °F (1997)
Min Temperature 30 °F - 19 °F (2001)
Degree Days  
Heating Degree Days 20    
Month to date heating degree days  
Since 1 July heating degree days  
Cooling Degree Days 0    
Month to date cooling degree days  
Year to date cooling degree days  
Moisture  
Dew Point 12 °F    
Average Humidity 29    
Maximum Humidity 43    
Minimum Humidity 15    
Precipitation  
Precipitation 0.00 in - 0.34 in (2007)
Month to date precipitation 0.00  
Year to date precipitation 0.00  
Sea Level Pressure  
Sea Level Pressure 30.18 in    
Wind  
Wind Speed 7 mph (West)    
Max Wind Speed 14 mph    
Max Gust Speed 18 mph    
Visibility 10 miles    
Events      
T = Trace of Precipitation, MM = Missing Value Source: NWS Daily Summary

Daily Weather History Graph

Daily Weather History Graph

Search for Another Location

Airport:

Trip Planner

Search our weather history database for the weather conditions in past years. The results will help you decide how hot, cold, wet, or windy it might be!

Date:

Astronomy

Jan. 19, 2014 Rise Set
Actual Time 7:11 AM MST 5:28 PM MST
Civil Twilight 6:44 AM MST 5:55 PM MST
Nautical Twilight 6:14 AM MST 6:25 PM MST
Astronomical Twilight 5:44 AM MST 6:55 PM MST
Moon 8:55 PM MST (1/19) 8:55 AM MST (1/19)
Length of Visible Light 11h 10m
Length of Day
10h 17m
Waning Gibbous, 89% of the Moon is Illuminated
Jan 19
Waning Gibbous
Jan 23
Last Quarter
Jan 30
New
Feb 6
First Quarter
Feb 14
Full

Hourly Weather History & Observations

Time (MST) Temp. Windchill Dew Point Humidity Pressure Visibility Wind Dir Wind Speed Gust Speed Precip Events Conditions
12:53 AM 35.1 °F 30.1 °F 10.9 °F 37% 30.22 in 10.0 mi SW 5.8 mph - N/A   Clear
1:53 AM 37.0 °F 30.4 °F 10.9 °F 34% 30.22 in 10.0 mi West 9.2 mph - N/A   Clear
2:53 AM 33.1 °F 26.1 °F 10.9 °F 40% 30.24 in 10.0 mi WNW 8.1 mph - N/A   Clear
3:53 AM 33.1 °F 27.7 °F 10.9 °F 40% 30.22 in 10.0 mi NW 5.8 mph - N/A   Clear
4:53 AM 30.0 °F 21.7 °F 10.9 °F 45% 30.24 in 10.0 mi WNW 9.2 mph - N/A   Clear
5:53 AM 30.9 °F 23.5 °F 10.9 °F 43% 30.26 in 10.0 mi WNW 8.1 mph - N/A   Clear
6:53 AM 32.0 °F 24.8 °F 10.9 °F 42% 30.29 in 10.0 mi WNW 8.1 mph - N/A   Clear
7:53 AM 33.1 °F 30.0 °F 10.9 °F 40% 30.31 in 10.0 mi NNW 3.5 mph - N/A   Clear
8:53 AM 41.0 °F 38.0 °F 12.0 °F 31% 30.30 in 10.0 mi NNE 4.6 mph - N/A   Clear
9:53 AM 46.9 °F - 12.0 °F 24% 30.29 in 10.0 mi Calm Calm - N/A   Clear
10:53 AM 51.1 °F - 12.9 °F 22% 30.26 in 10.0 mi Calm Calm - N/A   Clear
11:53 AM 54.0 °F - 12.9 °F 20% 30.22 in 10.0 mi South 8.1 mph - N/A   Clear
12:53 PM 55.9 °F - 12.0 °F 18% 30.17 in 10.0 mi South 10.4 mph 17.3 mph N/A   Clear
1:53 PM 59.0 °F - 12.0 °F 16% 30.11 in 10.0 mi South 11.5 mph - N/A   Clear
2:53 PM 60.1 °F - 12.9 °F 16% 30.09 in 10.0 mi South 10.4 mph - N/A   Clear
3:53 PM 60.1 °F - 12.0 °F 15% 30.09 in 10.0 mi South 12.7 mph - N/A   Clear
4:53 PM 55.9 °F - 12.0 °F 18% 30.11 in 10.0 mi South 9.2 mph - N/A   Clear
5:53 PM 54.0 °F - 12.0 °F 19% 30.10 in 10.0 mi South 5.8 mph - N/A   Clear
6:53 PM 54.0 °F - 12.0 °F 19% 30.11 in 10.0 mi Calm Calm - N/A   Clear
7:53 PM 48.9 °F - 12.9 °F 24% 30.13 in 10.0 mi NNW 3.5 mph - N/A   Clear
8:53 PM 44.1 °F 41.5 °F 14.0 °F 30% 30.12 in 10.0 mi North 4.6 mph - N/A   Clear
9:53 PM 45.0 °F 40.6 °F 14.0 °F 29% 30.10 in 10.0 mi West 8.1 mph - N/A   Clear
10:53 PM 43.0 °F 37.7 °F 12.9 °F 30% 30.10 in 10.0 mi WNW 9.2 mph - N/A   Clear
11:53 PM 39.0 °F 36.8 °F 12.9 °F 34% 30.09 in 10.0 mi East 3.5 mph - N/A   Clear